Home   Weather   Ushuaia   Past weeks

Flag for Argentina Past Weather in Ushuaia, Tierra del Fuego, Argentina — Yesterday and Last 2 Weeks

Now
48 °F

Scattered clouds.


Feels Like: 40 °F
Forecast: N/A
Wind: 26 mph from West

Location: Ushuaia Aerodrome

Current Time: Jan 17, 2017 at 6:54:33 pm

Latest Report: Jan 17, 2017 at 6:00 pm


Visibility: N/A

Pressure: 29.36 "Hg

Humidity: 54%

Dew Point: 32 °F

Location of UshuaiaLocation

Past Weather in Ushuaia — Graph

°F

Ushuaia Temperature Yesterday

Maximum temperature yesterday: 50 °F (at 12:00 am)
Minimum temperature yesterday: 43 °F (at 9:00 am)
Average temperature yesterday: 47 °F

High & Low Weather Summary for the Past Weeks

 TemperatureHumidityPressure
High61 °F (Jan 15, 2:00 pm)100% (Jan 16, 2:00 pm)29.65 "Hg (Jan 16, 2:00 pm)
Low36 °F (Jan 10, 11:00 am)39% (Jan 15, 6:00 pm)28.85 "Hg (Jan 16, 5:00 am)
Average46 °F73%29.21 "Hg
* Reported Jan 2 5:00 pm — Jan 17 5:00 pm, Ushuaia, Weather by CustomWeather, © 2017

Note: Actual official high and low records may vary slightly from our data, if they occured in-between our weather recording intervals... More about our weather records

Advertising

Ushuaia Weather History for the Previous 24 Hours

Scroll right to see more
 ConditionsComfort  
Time TempWeatherWind HumidityBarometerVisibility
5:00 pm
Tue, Jan 17
46 °FBroken clouds.23 mph71%29.33 "HgN/A
4:00 pm45 °FScattered showers. Broken clouds.37 mph81%29.30 "HgN/A
3:00 pm45 °FBroken clouds.28 mph76%29.30 "HgN/A
2:00 pm45 °FScattered showers. Broken clouds.31 mph71%29.27 "HgN/A
1:00 pm45 °FScattered showers. Broken clouds.26 mph71%29.24 "HgN/A
12:11 pm45 °FRain showers. Broken clouds.24 mph71%29.24 "HgN/A
12:00 pm46 °FScattered showers. Partly sunny.20 mph62%29.24 "HgN/A
11:00 am45 °FBroken clouds.26 mph61%29.24 "HgN/A
10:00 am45 °FBroken clouds.16 mph66%29.24 "HgN/A
9:00 am43 °FBroken clouds.20 mph71%29.21 "HgN/A
8:00 am43 °FBroken clouds.14 mph71%29.21 "HgN/A
7:00 am39 °FBroken clouds.7 mph75%29.21 "HgN/A
6:00 am41 °FPartly sunny.5 mph66%29.21 "HgN/A
5:00 am41 °FPassing clouds.6 mph66%29.18 "HgN/A
4:00 am41 °FPassing clouds.3 mph66%29.21 "HgN/A
3:00 am41 °FPassing clouds.5 mph66%29.21 "HgN/A
2:00 am41 °FPassing clouds.6 mph66%29.21 "HgN/A
1:00 am43 °FPassing clouds.13 mph66%29.24 "HgN/A
12:00 am45 °FPassing clouds.17 mph49%29.21 "HgN/A
11:00 pm
Mon, Jan 16
45 °FPartly cloudy.22 mph53%29.21 "HgN/A
10:00 pm45 °FPartly sunny.25 mph53%29.21 "HgN/A
9:00 pm45 °FPartly sunny.29 mph57%29.18 "HgN/A
8:00 pm46 °FPartly sunny.32 mph43%29.15 "HgN/A
7:00 pm48 °FPartly sunny.37 mph43%29.12 "HgN/A
6:00 pm46 °FScattered clouds.40 mph71%29.06 "HgN/A
Weather by CustomWeather, © 2017

See weather overviewHow to use our weather pages